Time,TemperatureF,DewpointF,PressureIn,WindDirection,WindDirectionDegrees,WindSpeedMPH,WindSpeedGustMPH,Humidity,HourlyPrecipIn,Conditions,Clouds,dailyrainin,SolarRadiationWatts/m^2,SoftwareType,DateUTC
2013-01-15 00:40:00,37.0,22.0,30.36,WNW,299,2.0,4.0,53,-99.99,,,-99.99,0.000000,,2013-01-15 08:40:00,
2013-01-15 01:40:00,36.0,24.0,30.36,West,269,3.0,4.0,62,-99.99,,,-99.99,0.000000,,2013-01-15 09:40:00,
2013-01-15 02:40:00,35.0,26.0,30.38,NW,308,3.0,4.0,68,-99.99,,,-99.99,0.000000,,2013-01-15 10:40:00,
2013-01-15 04:40:00,36.0,26.0,30.36,SSW,204,2.0,4.0,67,-99.99,,,-99.99,0.000000,,2013-01-15 12:40:00,
2013-01-15 05:40:00,36.0,25.0,30.37,SSE,160,3.0,4.0,63,-99.99,,,-99.99,0.000000,,2013-01-15 13:40:00,
2013-01-15 06:40:00,36.0,25.0,30.37,South,180,4.0,7.0,63,-99.99,,,-99.99,0.000000,,2013-01-15 14:40:00,
2013-01-15 07:33:00,36.0,25.0,30.37,South,180,4.0,7.0,63,-99.99,,,-99.99,0.000000,,2013-01-15 15:33:00,
2013-01-15 07:40:00,39.0,20.0,30.38,South,178,1.0,2.0,46,-99.99,,,-99.99,12.000000,,2013-01-15 15:40:00,
2013-01-15 08:40:00,43.0,16.0,30.40,SW,229,3.0,5.0,34,-99.99,,,-99.99,242.000000,,2013-01-15 16:40:00,
2013-01-15 09:40:00,45.0,21.0,30.43,SSW,193,3.0,5.0,38,-99.99,,,-99.99,386.000000,,2013-01-15 17:40:00,
2013-01-15 10:23:00,45.0,21.0,30.43,SSW,193,3.0,5.0,38,-99.99,,,-99.99,386.000000,,2013-01-15 18:23:00,
2013-01-15 10:33:00,45.0,21.0,30.43,SSW,193,3.0,5.0,38,-99.99,,,-99.99,386.000000,,2013-01-15 18:33:00,
2013-01-15 10:40:00,43.0,29.0,30.43,West,263,2.0,3.0,58,-99.99,,,-99.99,545.000000,,2013-01-15 18:40:00,
2013-01-15 11:22:00,43.0,29.0,30.43,West,263,2.0,3.0,58,-99.99,,,-99.99,545.000000,,2013-01-15 19:22:00,
2013-01-15 11:33:00,43.0,29.0,30.43,West,263,2.0,3.0,58,-99.99,,,-99.99,545.000000,,2013-01-15 19:33:00,
2013-01-15 11:40:00,44.0,34.0,30.42,SW,222,4.0,9.0,68,-99.99,,,-99.99,583.000000,,2013-01-15 19:40:00,
2013-01-15 12:23:00,44.0,34.0,30.42,SW,222,4.0,9.0,68,-99.99,,,-99.99,583.000000,,2013-01-15 20:23:00,
2013-01-15 12:33:00,44.0,34.0,30.42,SW,222,4.0,9.0,68,-99.99,,,-99.99,583.000000,,2013-01-15 20:33:00,
2013-01-15 12:40:00,43.0,35.0,30.38,West,268,4.0,7.0,72,-99.99,,,-99.99,641.000000,,2013-01-15 20:40:00,
2013-01-15 13:22:00,43.0,35.0,30.38,West,268,4.0,7.0,72,-99.99,,,-99.99,641.000000,,2013-01-15 21:22:00,
2013-01-15 13:33:00,43.0,35.0,30.38,West,268,4.0,7.0,72,-99.99,,,-99.99,641.000000,,2013-01-15 21:33:00,
2013-01-15 13:40:00,46.0,35.0,30.37,SW,224,3.0,8.0,66,-99.99,,,-99.99,572.000000,,2013-01-15 21:40:00,
2013-01-15 14:22:00,46.0,35.0,30.37,SW,224,3.0,8.0,66,-99.99,,,-99.99,572.000000,,2013-01-15 22:22:00,
2013-01-15 14:33:00,46.0,35.0,30.37,SW,224,3.0,8.0,66,-99.99,,,-99.99,572.000000,,2013-01-15 22:33:00,
2013-01-15 14:40:00,45.0,34.0,30.36,West,268,4.0,6.0,66,-99.99,,,-99.99,413.000000,,2013-01-15 22:40:00,
2013-01-15 15:22:00,45.0,34.0,30.36,West,268,4.0,6.0,66,-99.99,,,-99.99,413.000000,,2013-01-15 23:22:00,
2013-01-15 15:32:00,45.0,34.0,30.36,West,268,4.0,6.0,66,-99.99,,,-99.99,413.000000,,2013-01-15 23:32:00,
2013-01-15 15:40:00,46.0,32.0,30.36,West,269,1.0,4.0,58,-99.99,,,-99.99,254.000000,,2013-01-15 23:40:00,
2013-01-15 16:22:00,46.0,32.0,30.36,West,269,1.0,4.0,58,-99.99,,,-99.99,254.000000,,2013-01-16 00:22:00,
2013-01-15 16:32:00,46.0,32.0,30.36,West,269,1.0,4.0,58,-99.99,,,-99.99,254.000000,,2013-01-16 00:32:00,
2013-01-15 16:40:00,45.0,33.0,30.37,WNW,289,1.0,4.0,63,-99.99,,,-99.99,86.000000,,2013-01-16 00:40:00,
2013-01-15 17:22:00,45.0,33.0,30.37,WNW,289,1.0,4.0,63,-99.99,,,-99.99,86.000000,,2013-01-16 01:22:00,
2013-01-15 17:33:00,45.0,33.0,30.37,WNW,289,1.0,4.0,63,-99.99,,,-99.99,86.000000,,2013-01-16 01:33:00,
2013-01-15 17:40:00,40.0,31.0,30.37,NNW,331,3.0,5.0,69,-99.99,,,-99.99,1.000000,,2013-01-16 01:40:00,
2013-01-15 18:22:00,40.0,31.0,30.37,NNW,331,3.0,5.0,69,-99.99,,,-99.99,1.000000,,2013-01-16 02:22:00,
2013-01-15 18:32:00,40.0,31.0,30.37,NNW,331,3.0,5.0,69,-99.99,,,-99.99,1.000000,,2013-01-16 02:32:00,
2013-01-15 18:40:00,41.0,31.0,30.38,ESE,121,1.0,3.0,67,-99.99,,,-99.99,0.000000,,2013-01-16 02:40:00,
2013-01-15 19:22:00,41.0,31.0,30.38,ESE,121,1.0,3.0,67,-99.99,,,-99.99,0.000000,,2013-01-16 03:22:00,
2013-01-15 19:32:00,41.0,31.0,30.38,ESE,121,1.0,3.0,67,-99.99,,,-99.99,0.000000,,2013-01-16 03:32:00,
2013-01-15 19:40:00,43.0,29.0,30.37,East,96,1.0,2.0,58,-99.99,,,-99.99,0.000000,,2013-01-16 03:40:00,
2013-01-15 20:22:00,43.0,29.0,30.37,East,96,1.0,2.0,58,-99.99,,,-99.99,0.000000,,2013-01-16 04:22:00,
2013-01-15 20:32:00,43.0,29.0,30.37,East,96,1.0,2.0,58,-99.99,,,-99.99,0.000000,,2013-01-16 04:32:00,
2013-01-15 20:40:00,42.0,28.0,30.38,North,356,2.0,3.0,58,-99.99,,,-99.99,0.000000,,2013-01-16 04:40:00,
2013-01-15 21:22:00,42.0,28.0,30.38,North,356,2.0,3.0,58,-99.99,,,-99.99,0.000000,,2013-01-16 05:22:00,
2013-01-15 21:32:00,42.0,28.0,30.38,North,356,2.0,3.0,58,-99.99,,,-99.99,0.000000,,2013-01-16 05:32:00,
2013-01-15 21:40:00,43.0,26.0,30.37,ENE,70,5.0,7.0,51,-99.99,,,-99.99,0.000000,,2013-01-16 05:40:00,
2013-01-15 22:22:00,43.0,26.0,30.37,ENE,70,5.0,7.0,51,-99.99,,,-99.99,0.000000,,2013-01-16 06:22:00,
2013-01-15 22:32:00,43.0,26.0,30.37,ENE,70,5.0,7.0,51,-99.99,,,-99.99,0.000000,,2013-01-16 06:32:00,
2013-01-15 22:40:00,42.0,26.0,30.37,East,94,5.0,7.0,52,-99.99,,,-99.99,0.000000,,2013-01-16 06:40:00,
2013-01-15 23:22:00,42.0,26.0,30.37,East,94,5.0,7.0,52,-99.99,,,-99.99,0.000000,,2013-01-16 07:22:00,
2013-01-15 23:32:00,42.0,26.0,30.37,East,94,5.0,7.0,52,-99.99,,,-99.99,0.000000,,2013-01-16 07:32:00,
2013-01-15 23:40:00,44.0,25.0,30.37,NNW,338,1.0,4.0,46,-99.99,,,-99.99,0.000000,,2013-01-16 07:40:00,